Home   Weather   Phoenix   Past weeks
Flag for USA

Past Weather in Phoenix, Arizona, USA — Yesterday and Last 2 Weeks

Now
77 °F

Passing clouds.


Feels Like: 78 °F
Forecast: 77 / 63 °F
Wind: 13 mph from Southwest

Location: Phoenix Sky Harbor International Airport

Current Time: May 26, 2019 at 10:26:51 pm

Latest Report: May 26, 2019 at 9:51 pm


Visibility: 10 mi

Pressure: 29.74 "Hg

Humidity: 28%

Dew Point: 41 °F

Location of PhoenixLocation

Past Weather in Phoenix — Graph

°F

Phoenix Temperature Yesterday

Maximum temperature yesterday: 92 °F (at 3:51 pm)
Minimum temperature yesterday: 64 °F (at 4:51 am)
Average temperature yesterday: 79 °F

High & Low Weather Summary for the Past Weeks

 TemperatureHumidityPressure
High98 °F (May 15, 2:51 pm)90% (May 23, 3:51 am)29.93 "Hg (May 23, 3:51 am)
Low54 °F (May 23, 3:51 am)4% (May 25, 5:51 pm)29.53 "Hg (May 21, 6:51 pm)
Average76 °F28%29.75 "Hg
* Reported May 11 8:51 pm — May 26 8:51 pm, Phoenix. Weather by CustomWeather, © 2019

Note: Actual official high and low records may vary slightly from our data, if they occured in-between our weather recording intervals... More about our weather records

Advertising

Phoenix Weather History for the Previous 24 Hours

Scroll right to see more
 ConditionsComfort  
Time TempWeatherWind HumidityBarometerVisibility
8:51 pm
Sun, May 26
77 °FPartly cloudy.12 mph28%29.72 "Hg10 mi
7:51 pm78 °FPartly cloudy.12 mph25%29.72 "Hg10 mi
6:51 pm79 °FScattered clouds.8 mph27%29.72 "Hg10 mi
5:51 pm82 °FScattered clouds.12 mph23%29.72 "Hg10 mi
4:51 pm83 °FPassing clouds.12 mph19%29.72 "Hg10 mi
3:51 pm82 °FPassing clouds.6 mph19%29.74 "Hg10 mi
2:51 pm83 °FPassing clouds.18 mph20%29.75 "Hg10 mi
1:51 pm82 °FScattered clouds.15 mph22%29.76 "Hg10 mi
12:51 pm81 °FScattered clouds.16 mph24%29.77 "Hg10 mi
11:51 am81 °FScattered clouds.26 mph23%29.76 "Hg10 mi
10:59 am82 °FScattered clouds.16 mph20%29.80 "Hg10 mi
9:51 am76 °FScattered clouds.No wind19%29.75 "Hg10 mi
8:51 am74 °FScattered clouds.5 mph21%29.75 "Hg10 mi
7:51 am73 °FScattered clouds.3 mph23%29.74 "Hg10 mi
6:51 am70 °FPassing clouds.3 mph26%29.72 "Hg10 mi
5:51 am66 °FPassing clouds.3 mph28%29.71 "Hg10 mi
4:51 am71 °FPassing clouds.3 mph23%29.69 "Hg10 mi
3:51 am70 °FClear.3 mph22%29.70 "Hg10 mi
2:51 am71 °FClear.3 mph23%29.69 "Hg10 mi
1:51 am73 °FClear.7 mph22%29.69 "Hg10 mi
12:51 am77 °FClear.3 mph18%29.68 "Hg10 mi
11:51 pm
Sat, May 25
78 °FClear.6 mph16%29.69 "Hg10 mi
10:51 pm80 °FClear.13 mph14%29.68 "Hg10 mi
Weather by CustomWeather, © 2019

See weather overview